Location: Terra Rouge Observatory
(46.0000°N, 62.7500°W)
Time: 19:11:19
(UTC-04:00)

NOSS 3-1 (A) - Visible Passes

Search period start: 20 November 2017 00:00
Search period end: 30 November 2017 00:00
Orbit: 821 x 1391 km, 63.4° (Epoch: 17 November)

Date Brightness Start Highest point End Pass type
(mag) Time Alt. Az. Time Alt. Az. Time Alt. Az.
20 Nov 5.7 02:57:53 23° NNE 02:57:53 23° NNE 03:03:13 10° ENE visible
20 Nov 4.6 04:45:20 23° NNW 04:50:00 52° NE 04:58:01 10° ESE visible
20 Nov 4.4 06:33:50 10° NW 06:41:09 50° WSW 06:49:10 10° S visible
21 Nov 6.1 02:14:51 16° NE 02:14:51 16° NE 02:17:12 10° NE visible
21 Nov 5.0 04:02:19 31° N 04:04:56 39° NE 04:12:28 10° ESE visible
21 Nov 4.1 05:49:47 14° NW 05:56:28 71° WSW 06:04:51 10° SSE visible
22 Nov 5.2 03:19:21 31° NNE 03:19:43 31° NNE 03:26:40 10° E visible
22 Nov 4.0 05:06:50 25° NW 05:11:43 84° NE 05:20:08 10° SE visible
23 Nov 5.8 02:36:28 23° NE 02:36:28 23° NE 02:40:42 10° ENE visible
23 Nov 4.3 04:23:56 39° NNW 04:26:50 62° NE 04:35:04 10° SE visible
23 Nov 4.6 06:11:25 13° NW 06:17:44 40° WSW 06:25:22 10° S visible
24 Nov 6.4 01:53:39 13° ENE 01:53:39 13° ENE 01:54:40 10° ENE visible
24 Nov 4.7 03:41:08 45° NNE 03:41:50 46° NE 03:49:41 10° ESE visible
24 Nov 4.2 05:28:36 26° NW 05:33:08 58° WSW 05:41:20 10° SSE visible
25 Nov 5.3 02:58:24 32° ENE 02:58:24 32° ENE 03:04:01 10° E visible
25 Nov 3.9 04:45:53 48° NW 04:48:26 81° SW 04:56:51 10° SSE visible
25 Nov 5.3 06:33:22 10° WNW 06:38:40 21° WSW 06:44:24 10° SSW visible
26 Nov 6.1 02:15:44 18° ENE 02:15:44 18° ENE 02:18:09 10° E visible
26 Nov 4.0 04:03:14 73° NNE 04:03:37 75° NE 04:11:59 10° SE visible
26 Nov 4.8 05:50:44 22° WNW 05:54:16 31° WSW 06:01:22 10° S visible
26 Nov 5.4 19:42:32 10° SSW 19:43:28 15° SSW 19:43:28 15° SSW visible
27 Nov 4.8 03:20:40 45° E 03:20:40 45° E 03:26:48 10° ESE visible
27 Nov 4.3 05:08:10 42° W 05:09:44 46° WSW 05:17:39 10° S visible
27 Nov 4.7 18:58:33 10° S 19:01:02 23° SSE 19:01:02 23° SSE visible
28 Nov 5.8 02:38:12 23° E 02:38:12 23° E 02:41:18 10° ESE visible
28 Nov 4.0 04:25:43 64° SSW 04:25:43 64° SSW 04:33:25 10° SSE visible
28 Nov 5.4 06:13:13 14° W 06:15:04 15° WSW 06:19:29 10° SW visible
28 Nov 4.6 18:15:11 10° SSE 18:18:33 21° ESE 18:18:33 21° ESE visible
28 Nov 5.0 20:03:37 10° SW 20:06:03 27° SW 20:06:03 27° SW visible
29 Nov 4.8 03:43:18 45° SE 03:43:18 45° SE 03:48:47 10° SE visible
29 Nov 5.0 05:30:49 25° WSW 05:30:49 25° WSW 05:37:08 10° SSW visible
29 Nov 5.1 17:33:08 10° SE 17:35:15 12° ESE 17:36:00 12° E visible
29 Nov 3.6 19:18:58 10° SSW 19:23:30 57° S 19:23:30 57° S visible
29 Nov 6.2 21:10:55 10° W 21:11:00 10° W 21:11:00 10° W visible
